STARLINK-36637, 67633

Orbit data source: Space-Track

STARLINK-36637, 67633 is a payload satellite owned by SpaceX/Seattle (US) in LEO that was launched on Fri, 30 Jan 2026 UTC via an FALCON 9 launch vehicle from the Air Force Eastern Test Range (AFETR). Payload-class satellites include a variety of spacecraft equipped with specific instruments for various scientific and technological missions. These include communications satellites like Starlink; space stations such as the ISS; scientific satellites like the Hubble; Earth observation satellites from companies like Planet Labs, Umbra, and HawkEye 360; GPS; miniature CubeSats for education and research; and military/defense satellites.

Loading next visibility...
Identifier
67633, 2026-020S
Orbit
LEO
Country
Flag of USUS
Related business
Manufacturer
SpaceX/Seattle
Mission
Operational spacecraft
Bus & Motor
STARLINK V2MO, Unknown motor
Mass
575 kg wet, ~530 kg dry
Launch date (UTC)
2026-01-30 (2 months ago)
Launch vehicle
FALCON 9
Launch site
Air Force Eastern Test Range (AFETR)
Object type
Payload
Rocket body
Debris
Shape & HBR
Unknown shape, 17.7 m
Radar Cross Section
RCS unknown

Expand to show TLE details & history
Last TLE update: 20 hours ago

TLE from 20 hours ago
0 STARLINK-36637
1 67633U 26020S   26104.25852948  .00008042  00000-0  30130-3 0  9995
2 67633  43.0029 298.8853 0002868 266.8085  93.2438 15.27595090 11551
Epoch: 2026-04-14T06:12Z
TLE epoch observation values (Epoch: 2026-04-14T06:12:16.947Z)
Latitude
-0.00004°
Longitude
3.37729°
Altitude
482.892 km
Speed
7.626 km/s
True Right ascension
19h 55m 32s
True Declination
0° 00' 00"
Sunlit
Object was in daylight at epoch
Visualization orbit readout
Latitude
Unknown
Longitude
Unknown
Altitude
Unknown
Speed
Unknown
Apparent Right ascension
Unknown
Apparent Declination
Unknown
Sunlit
N/A
Visualization observer readout
Local Sidereal Time
08:54:33
Azimuth
Unknown
Elevation
Unknown
Doppler factor
Unknown
Orbital elements
Apogee altitude
486.917 km
Perigee altitude
482.98 km
Semi-major axis
6,863.086 km
Eccentricity
0.00029
Inclination
43.0029°
RAAN
298.8853°
Arg. of periapsis
266.8085°
True anomaly
93.27661°
Mean anomaly
93.2438°
Eccentric anomaly
93.26021°
Mean motion
3.81737 °/min
Orbital period
94.31 mins
BSTAR
0.0003013
Loading maneuver chart data...
Computing Atmospheric mass density...
Loading historical data...
Loading historical data...
Loading historical data...
Loading historical data...
Loading historical data...
Loading historical data...
Loading historical data...

Documentation

Showing up to 5 results
|